XML Sitemap

This is a XML Sitemap which is supposed to be processed by search engines which follow the XML Sitemap standard like Ask.com, Bing, Google and Yahoo.
It was generated using the WordPress content management system and the Google Sitemap Generator Plugin by Arne Brachhold.
You can find more information about XML sitemaps on sitemaps.org and Google's list of sitemap programs.

URLPriorityChange frequencyLast modified (GMT)
http://www.ilustradordigital.es/2015-01-31-16-54-0790%Daily2015-01-31 16:45
http://www.ilustradordigital.es/2015-01-31-08-43-1890%Daily2015-01-31 08:41
http://www.ilustradordigital.es/2015-01-31-08-28-1590%Daily2015-01-31 08:27
http://www.ilustradordigital.es/el-nido-de-golondrinas90%Daily2015-01-31 08:14
http://www.ilustradordigital.es/2015-01-31-08-19-1790%Daily2015-01-31 08:06
http://www.ilustradordigital.es/lpgc-suspende-los-mogollones90%Daily2015-01-30 15:00
http://www.ilustradordigital.es/2015-01-30-14-55-1590%Daily2015-01-30 14:52
http://www.ilustradordigital.es/2015-01-30-08-01-0190%Daily2015-01-30 08:00
http://www.ilustradordigital.es/2015-01-30-07-48-5390%Daily2015-01-30 07:48
http://www.ilustradordigital.es/la-templanza90%Daily2015-01-30 07:35
http://www.ilustradordigital.es/grecia-sin-corbata90%Daily2015-01-30 07:25
http://www.ilustradordigital.es/el-proyecto-de-tindaya-no-tiene-cobertura-legal90%Daily2015-01-29 14:48
http://www.ilustradordigital.es/2015-01-29-07-44-5290%Daily2015-01-29 07:44
http://www.ilustradordigital.es/se-fractura-los-brazos-un-accidente-de-ala-delta-en-lanzarote90%Daily2015-01-29 07:38
http://www.ilustradordigital.es/2015-01-29-07-38-0290%Daily2015-01-29 07:37
http://www.ilustradordigital.es/2015-01-29-07-27-2090%Daily2015-01-29 07:25
http://www.ilustradordigital.es/2015-01-29-07-25-0290%Daily2015-01-29 07:24
http://www.ilustradordigital.es/2015-01-28-14-51-0090%Daily2015-01-28 14:50
http://www.ilustradordigital.es/facebook-at-work90%Daily2015-01-28 12:13
http://www.ilustradordigital.es/2015-01-28-12-07-4990%Daily2015-01-28 12:07
http://www.ilustradordigital.es/2015-01-27-16-31-0290%Daily2015-01-27 16:30
http://www.ilustradordigital.es/2015-01-27-16-22-4390%Daily2015-01-27 16:20
http://www.ilustradordigital.es/2015-01-27-16-17-0090%Daily2015-01-27 16:12
http://www.ilustradordigital.es/2015-01-27-16-01-1990%Daily2015-01-27 15:57
http://www.ilustradordigital.es/2015-01-26-15-36-1090%Daily2016-04-22 09:52
http://www.ilustradordigital.es/preaviso-de-huelga-en-titsa90%Daily2015-01-27 07:29
http://www.ilustradordigital.es/2015-01-27-07-20-2990%Daily2015-01-27 07:20
http://www.ilustradordigital.es/2015-01-26-16-20-0690%Daily2015-01-26 16:19
http://www.ilustradordigital.es/las-carencias-en-urgencias-aumentan-el-riesgo-de-error-humano-y-mortalidad90%Daily2015-01-26 16:13
http://www.ilustradordigital.es/rescatan-un-velero-a-la-deriva-al-norte-de-la-palma90%Daily2015-01-26 16:02
http://www.ilustradordigital.es/2015-01-26-07-43-0890%Daily2015-01-26 07:42
http://www.ilustradordigital.es/whatsapp-desde-el-ordenador90%Daily2015-01-26 07:30
http://www.ilustradordigital.es/empate-a-cero-entre-las-palmas-y-llagostera90%Daily2015-01-26 07:24
http://www.ilustradordigital.es/2015-01-25-15-42-0990%Daily2015-01-25 15:41
http://www.ilustradordigital.es/2015-01-25-08-53-0690%Daily2015-01-25 08:52
http://www.ilustradordigital.es/2015-01-25-08-44-0190%Daily2016-04-22 07:04
http://www.ilustradordigital.es/el-tenerife-cae-en-el-heliodoro-ante-la-ponferradina-0-190%Daily2015-01-25 08:24
http://www.ilustradordigital.es/2015-01-24-19-10-5090%Daily2015-01-24 19:02
http://www.ilustradordigital.es/las-industrias-canarias-se-quedan-sin-subvenciones90%Daily2015-01-24 18:55
http://www.ilustradordigital.es/los-trabajadores-del-itc-siguen-esperando-una-respuesta-del-gobierno-de-canarias90%Daily2015-01-24 08:55
http://www.ilustradordigital.es/2015-01-24-08-34-2490%Daily2015-01-24 08:34
http://www.ilustradordigital.es/festival-de-invierno-201590%Daily2015-01-24 08:28
http://www.ilustradordigital.es/ccoo-acusa-al-ministro-wert-de-desestabilizar-las-universidades90%Daily2015-01-24 08:27
http://www.ilustradordigital.es/2015-01-23-17-01-2690%Daily2015-01-23 17:01
http://www.ilustradordigital.es/2015-01-23-16-37-5090%Daily2015-01-23 16:35
http://www.ilustradordigital.es/2015-01-23-16-29-3090%Daily2015-01-23 16:25
http://www.ilustradordigital.es/denuncian-un-intento-de-rapto-en-telde90%Daily2015-01-23 07:52
http://www.ilustradordigital.es/2015-01-23-07-52-4390%Daily2015-01-23 07:52
http://www.ilustradordigital.es/el-pensionado-de-neuwelke90%Daily2015-01-23 07:35
http://www.ilustradordigital.es/estafados-en-nombre-de-la-ley90%Daily2016-09-19 05:18
http://www.ilustradordigital.es/2015-01-22-15-18-1190%Daily2015-01-22 15:17
http://www.ilustradordigital.es/holaislascanariascom90%Daily2015-01-22 15:13
http://www.ilustradordigital.es/2015-01-22-15-06-5690%Daily2015-01-22 15:03
http://www.ilustradordigital.es/2015-01-22-08-52-1390%Daily2015-01-22 08:51
http://www.ilustradordigital.es/project-blue-book90%Daily2015-01-22 08:36
http://www.ilustradordigital.es/el-paro-alcanza-al-31-por-ciento-de-los-canarios90%Daily2015-01-22 08:31
http://www.ilustradordigital.es/2015-01-22-08-29-2190%Daily2015-01-22 08:27
http://www.ilustradordigital.es/2015-01-19-20-57-5290%Daily2015-01-21 07:38
http://www.ilustradordigital.es/detenida-una-empleada-de-la-limpieza-por-estafar-a-un-paciente-del-hospital-insular90%Daily2015-01-21 07:15
http://www.ilustradordigital.es/2015-01-20-21-20-1690%Daily2015-01-21 06:17
http://www.ilustradordigital.es/detenidos-los-atracadores-de-la-sucursal-de-la-caixa90%Daily2015-01-21 06:13
http://www.ilustradordigital.es/caza-de-brujas-en-los-informativos-de-tve90%Daily2015-01-21 06:11
http://www.ilustradordigital.es/2015-01-20-14-24-1190%Daily2015-01-20 14:20
http://www.ilustradordigital.es/la-serie-completa-de-los-caprichos-llega-a-canarias90%Daily2015-01-20 07:52
http://www.ilustradordigital.es/2015-01-19-20-16-0590%Daily2015-01-20 07:12
http://www.ilustradordigital.es/nuevo-ref-para-canarias90%Daily2015-01-20 07:12
http://www.ilustradordigital.es/2015-01-20-07-01-3390%Daily2015-01-20 06:59
http://www.ilustradordigital.es/2015-01-19-19-31-0590%Daily2015-01-19 19:27
http://www.ilustradordigital.es/2015-01-19-08-18-4190%Daily2015-01-19 08:17
http://www.ilustradordigital.es/la-falta-de-viento-y-lluvias-incrementan-el-precio-de-la-electricidad90%Daily2015-01-19 08:00
http://www.ilustradordigital.es/islas-canarias-o-marcha-radetzky90%Daily2016-09-19 05:19
http://www.ilustradordigital.es/2015-01-18-18-16-5590%Daily2015-01-18 18:13
http://www.ilustradordigital.es/muere-un-parapentista-en-lanzarote90%Daily2015-01-18 18:08
http://www.ilustradordigital.es/viera-salva-la-ud-de-la-derrota90%Daily2015-01-18 09:01
http://www.ilustradordigital.es/2015-01-18-08-50-0290%Daily2015-01-18 08:47
http://www.ilustradordigital.es/birdman90%Daily2016-04-22 07:05
http://www.ilustradordigital.es/fallece-una-menor-en-gran-canaria-tras-un-partido-de-baloncesto90%Daily2015-01-17 18:51
http://www.ilustradordigital.es/2015-01-17-07-43-5690%Daily2015-01-17 07:41
http://www.ilustradordigital.es/2015-01-17-07-31-3890%Daily2015-01-17 07:22
http://www.ilustradordigital.es/2015-01-17-07-21-0990%Daily2015-01-17 07:17
http://www.ilustradordigital.es/general-sherman90%Daily2015-01-16 23:15
http://www.ilustradordigital.es/2015-01-16-09-43-1790%Daily2015-01-16 09:33
http://www.ilustradordigital.es/cosas-que-he-roto90%Daily2015-01-16 08:12
http://www.ilustradordigital.es/2015-01-16-08-02-3990%Daily2015-01-16 08:02
http://www.ilustradordigital.es/repsol-paraliza-las-prospecciones-en-canarias90%Daily2015-01-16 07:48
http://www.ilustradordigital.es/2015-01-15-14-54-1890%Daily2015-01-15 14:48
http://www.ilustradordigital.es/2015-01-15-08-04-2990%Daily2015-01-15 08:04
http://www.ilustradordigital.es/2015-01-15-07-55-5290%Daily2015-01-15 07:55
http://www.ilustradordigital.es/2015-01-15-07-47-0290%Daily2015-01-15 07:46
http://www.ilustradordigital.es/2015-01-15-07-35-1090%Daily2015-01-15 07:34
http://www.ilustradordigital.es/2015-01-14-16-22-5790%Daily2015-01-14 16:18
http://www.ilustradordigital.es/2015-01-14-09-32-1490%Daily2015-01-14 09:24
http://www.ilustradordigital.es/2015-01-14-06-33-3490%Daily2015-01-14 06:33
http://www.ilustradordigital.es/desconvocada-la-huelga-en-el-riu-oasis90%Daily2015-01-14 06:14
http://www.ilustradordigital.es/2015-01-14-06-07-4090%Daily2015-01-14 06:07
http://www.ilustradordigital.es/rescatan-una-patera-con-23-ocupantes90%Daily2015-01-13 17:30
http://www.ilustradordigital.es/2015-01-13-13-20-4090%Daily2015-01-13 13:17
http://www.ilustradordigital.es/2015-01-13-09-24-5190%Daily2015-01-13 09:19
http://www.ilustradordigital.es/fallece-tras-ser-agredido-con-arma-blanca-en-gran-canaria90%Daily2015-01-13 09:10
http://www.ilustradordigital.es/2015-01-12-22-26-1790%Daily2015-01-13 08:25
http://www.ilustradordigital.es/herido-grave-tras-ser-atropellado-en-tenerife90%Daily2015-01-12 15:11
http://www.ilustradordigital.es/2015-01-12-14-58-5090%Daily2015-01-12 14:56
http://www.ilustradordigital.es/2015-01-12-08-59-3790%Daily2015-01-12 08:59
http://www.ilustradordigital.es/cielos-parcialmente-nublados-y-menos-calima90%Daily2015-01-12 08:54
http://www.ilustradordigital.es/2015-01-12-08-47-4690%Daily2015-01-12 08:47
http://www.ilustradordigital.es/un-incendio-en-una-vivienda-de-tenerife-se-salda-con-un-herido90%Daily2015-01-11 15:17
http://www.ilustradordigital.es/las-palmas-golea-al-zaragoza-5-390%Daily2015-01-11 14:48
http://www.ilustradordigital.es/12000-canarios-esperan-un-tratamiento-contra-la-hepatitis-c90%Daily2015-01-11 09:51
http://www.ilustradordigital.es/the-imitation-game90%Daily2016-04-22 07:08
http://www.ilustradordigital.es/detenido-en-tenerife-el-presunto-asesino-del-ciudadano-ruso90%Daily2015-01-10 21:17
http://www.ilustradordigital.es/el-tenerife-se-diluye-ante-el-betis-3-190%Daily2015-01-10 20:55
http://www.ilustradordigital.es/el-ascensor-de-bailong90%Daily2015-01-10 09:22
http://www.ilustradordigital.es/desarticulada-en-canarias-una-red-de-estafadores90%Daily2015-01-10 09:20
http://www.ilustradordigital.es/2015-01-10-09-20-0490%Daily2015-01-10 09:18
http://www.ilustradordigital.es/2015-01-10-09-18-3490%Daily2015-01-10 09:15
http://www.ilustradordigital.es/no-tengo-nada-que-ocultar90%Daily2015-01-09 18:27
http://www.ilustradordigital.es/2015-01-09-16-37-5690%Daily2015-01-09 16:29
http://www.ilustradordigital.es/2015-01-09-09-06-4290%Daily2015-01-09 08:56
http://www.ilustradordigital.es/las-flores-no-sangran90%Daily2015-01-09 08:44
http://www.ilustradordigital.es/2015-01-09-02-39-0490%Daily2015-01-09 02:35
http://www.ilustradordigital.es/sctf-critica-la-falta-de-ayudas-para-financiar-obras-por-los-temporales90%Daily2015-01-09 02:17
http://www.ilustradordigital.es/la-aldea-se-opone-al-cierre-parcial-de-la-carretera-gc-20090%Daily2015-01-09 02:08
http://www.ilustradordigital.es/2015-01-08-10-12-0090%Daily2015-01-08 10:08
http://www.ilustradordigital.es/2015-01-08-09-46-3390%Daily2015-01-08 09:44
http://www.ilustradordigital.es/2015-01-08-08-35-3290%Daily2015-01-08 08:35
http://www.ilustradordigital.es/se-facilitan-las-ventas-online-a-canarias90%Daily2015-01-08 08:03
http://www.ilustradordigital.es/2015-01-07-13-18-5090%Daily2015-01-07 13:13
http://www.ilustradordigital.es/toca-el-clarinete-woody90%Daily2015-01-07 09:17
http://www.ilustradordigital.es/2015-01-07-07-57-0290%Daily2015-01-07 07:56
http://www.ilustradordigital.es/2015-01-07-07-44-0490%Daily2015-01-07 07:42
http://www.ilustradordigital.es/encuentran-restos-humanos-en-la-cumbre-de-gran-canaria90%Daily2015-01-07 07:29
http://www.ilustradordigital.es/el-iva-digital-encarece-los-chollos-de-amazon90%Daily2015-01-07 07:21
http://www.ilustradordigital.es/2015-01-06-19-29-3190%Daily2015-01-06 19:24
http://www.ilustradordigital.es/2015-01-06-19-12-0290%Daily2015-01-06 19:10
http://www.ilustradordigital.es/fallecen-ahogados-en-gran-canaria90%Daily2015-01-05 18:50
http://www.ilustradordigital.es/detienen-en-lanzarote-a-dos-ex-miembros-del-ira90%Daily2015-01-05 18:44
http://www.ilustradordigital.es/2015-01-05-09-10-3290%Daily2015-01-05 08:58
http://www.ilustradordigital.es/el-tenerife-consigue-un-valioso-empate-ante-el-sporting-1-190%Daily2015-01-05 08:28
http://www.ilustradordigital.es/rescate-de-un-senderista-en-la-laguna90%Daily2015-01-05 07:26
http://www.ilustradordigital.es/2015-01-05-07-16-3390%Daily2015-01-05 07:14
http://www.ilustradordigital.es/2015-01-05-07-03-4890%Daily2015-01-05 06:59
http://www.ilustradordigital.es/las-palmas-vence-al-barcelona-b-0-290%Daily2015-01-04 09:58
http://www.ilustradordigital.es/2015-01-04-09-46-1190%Daily2015-01-04 09:45
http://www.ilustradordigital.es/la-huelga-en-el-riu-oasis-afecta-a-los-turistas90%Daily2015-01-04 09:29
http://www.ilustradordigital.es/the-interview90%Daily2016-04-22 07:10
http://www.ilustradordigital.es/calima-hasta-el-lunes90%Daily2015-01-03 18:43
http://www.ilustradordigital.es/2015-01-03-10-00-0890%Daily2015-01-03 09:38
http://www.ilustradordigital.es/2015-01-03-09-36-4390%Daily2015-01-03 09:36
http://www.ilustradordigital.es/2015-01-03-09-22-1590%Daily2015-01-03 09:12
http://www.ilustradordigital.es/2015-01-02-15-48-2790%Daily2015-01-02 15:44
http://www.ilustradordigital.es/2015-01-02-09-28-0790%Daily2015-01-02 09:27
http://www.ilustradordigital.es/fallece-un-motorista-en-la-palma90%Daily2015-01-02 09:18
http://www.ilustradordigital.es/2015-01-02-09-13-1290%Daily2015-01-02 09:12
http://www.ilustradordigital.es/2015-01-02-09-02-5790%Daily2015-01-02 09:02
http://www.ilustradordigital.es/2015-01-02-08-48-3390%Daily2015-01-02 08:48
http://www.ilustradordigital.es/2015-01-01-08-59-5690%Daily2015-01-01 08:50
http://www.ilustradordigital.es/la-calima-se-desplaza-hacia-las-islas-occidentales90%Daily2015-01-01 08:30
http://www.ilustradordigital.es/2015-01-01-08-21-2990%Daily2015-01-01 08:13